DW7281 Weather Reports


time (UTC)temp
C
wind
direction
speed
KPH
gust
KPH
rain 1hr
cm
rain 24hr
cm
rain mn
cm
humidity
%
barometer
mb
20260510000055 18 44 1.6 6.4 0.00 0.00 0.00 61 1030.8
20260509234604 17 51 1.6 6.4 0.00 0.00 0.00 62 1030.8
20260509233047 17 22 0.0 6.4 0.00 0.00 0.00 64 1030.7
20260509231548 17 42 1.6 4.8 0.00 0.00 0.00 64 1030.9
20260509230047 16 53 1.6 8.0 0.00 0.00 0.00 66 1030.9
20260509224543 16 86 1.6 6.4 0.00 0.00 0.00 67 1030.7
20260509223056 15 32 1.6 8.0 0.00 0.00 0.00 69 1030.3
20260509221551 15 12 0.0 8.0 0.00 0.00 0.00 70 1029.8
20260509220059 15 54 1.6 8.0 0.00 0.00 0.00 70 1029.6
20260509214543 14 59 0.0 4.8 0.00 0.00 0.00 72 1029.3
20260509213052 13 0 0.0 0.0 0.00 0.00 0.00 75 1029.3
20260509211546 12 0 0.0 0.0 0.00 0.00 0.00 76 1029.2
20260509210044 11 0 0.0 0.0 0.00 0.00 0.00 77 1029.2
20260509204559 10 0 0.0 0.0 0.00 0.00 0.00 81 1028.7
20260509203045 8 0 0.0 0.0 0.00 0.00 0.00 82 1028.3
20260509201548 9 0 0.0 0.0 0.00 0.00 0.00 80 1028.2
20260509200053 9 0 0.0 0.0 0.00 0.00 0.00 81 1028.1
20260509194546 9 0 0.0 0.0 0.00 0.00 0.00 82 1028.0
20260509193051 9 0 0.0 0.0 0.00 0.00 0.00 82 1027.8
20260509191552 9 0 0.0 0.0 0.00 0.00 0.00 83 1027.8
20260509190052 9 0 0.0 0.0 0.00 0.00 0.00 84 1027.7
20260509184546 9 0 0.0 0.0 0.00 0.00 0.00 85 1027.6
20260509183055 9 0 0.0 0.0 0.00 0.00 0.00 85 1027.6
20260509181546 9 0 0.0 0.0 0.00 0.00 0.00 85 1027.5
20260509180045 9 0 0.0 0.0 0.00 0.00 0.00 85 1027.4
20260509174555 9 0 0.0 0.0 0.00 0.00 0.00 85 1027.2
20260509173049 9 0 0.0 0.0 0.00 0.00 0.00 84 1027.1
20260509171553 10 0 0.0 0.0 0.00 0.00 0.00 84 1027.1
20260509170045 10 0 0.0 0.0 0.00 0.00 0.00 84 1027.3
20260509164546 10 0 0.0 0.0 0.00 0.00 0.00 83 1027.2
20260509163047 9 0 0.0 0.0 0.00 0.00 0.00 85 1027.4
20260509161552 9 0 0.0 0.0 0.00 0.00 0.00 84 1027.2
20260509160058 10 0 0.0 0.0 0.00 0.00 0.00 84 1027.3
20260509154558 9 0 0.0 0.0 0.00 0.00 0.00 84 1027.3
20260509153045 10 0 0.0 0.0 0.00 0.00 0.00 83 1027.4
20260509151546 10 0 0.0 0.0 0.00 0.00 0.00 82 1027.7
20260509150053 10 0 0.0 0.0 0.00 0.00 0.00 82 1027.6
20260509144611 10 0 0.0 0.0 0.00 0.00 0.00 82 1027.8
20260509143056 10 0 0.0 0.0 0.00 0.00 0.00 81 1027.8
20260509141547 11 0 0.0 0.0 0.00 0.00 0.00 81 1027.9
20260509140058 11 0 0.0 1.6 0.00 0.00 0.00 81 1027.8
20260509134553 11 0 0.0 1.6 0.00 0.00 0.00 81 1027.9
20260509133048 11 0 0.0 3.2 0.00 0.00 0.00 81 1028.1
20260509131556 11 0 0.0 1.6 0.00 0.00 0.00 81 1028.1
20260509130057 11 19 0.0 6.4 0.00 0.00 0.00 80 1028.2
20260509124550 11 0 0.0 0.0 0.00 0.00 0.00 80 1028.0
20260509123048 11 0 0.0 0.0 0.00 0.00 0.00 79 1028.0
20260509121600 11 0 0.0 0.0 0.00 0.00 0.00 79 1028.0
20260509120049 11 0 0.0 0.0 0.00 0.00 0.00 78 1028.1
20260509114549 12 0 0.0 0.0 0.00 0.00 0.00 78 1028.2
20260509113051 12 0 0.0 0.0 0.00 0.00 0.00 77 1028.1
20260509111546 12 0 0.0 0.0 0.00 0.00 0.00 76 1028.1
20260509110046 12 0 0.0 0.0 0.00 0.00 0.00 74 1028.1
20260509104549 12 0 0.0 0.0 0.00 0.00 0.00 73 1028.2
20260509103049 13 0 0.0 0.0 0.00 0.00 0.00 72 1027.9
20260509101551 13 0 0.0 0.0 0.00 0.00 0.00 71 1027.9
20260509100044 13 0 0.0 0.0 0.00 0.00 0.00 70 1027.8
20260509094545 13 0 0.0 0.0 0.00 0.00 0.00 69 1027.8
20260509093046 13 0 0.0 0.0 0.00 0.00 0.00 69 1027.7
20260509091550 14 0 0.0 0.0 0.00 0.00 0.00 67 1027.7
20260509084547 14 0 0.0 0.0 0.00 0.00 0.00 66 1027.2
20260509083053 15 0 0.0 0.0 0.00 0.00 0.00 65 1027.0
20260509081552 15 0 0.0 0.0 0.00 0.00 0.00 65 1026.7
20260509080048 15 0 0.0 0.0 0.00 0.00 0.00 64 1026.6
20260509074550 15 0 0.0 0.0 0.00 0.00 0.00 63 1026.4
20260509073050 15 0 0.0 0.0 0.00 0.00 0.00 62 1026.2
20260509071551 16 0 0.0 1.6 0.00 0.00 0.00 60 1026.1
20260509070051 16 0 0.0 4.8 0.00 0.00 0.00 59 1025.9
20260509064548 17 0 0.0 3.2 0.00 0.00 0.00 56 1025.8
20260509063047 17 0 0.0 6.4 0.00 0.00 0.00 55 1025.5
20260509061551 18 0 0.0 3.2 0.00 0.00 0.00 54 1025.5
20260509060058 18 0 0.0 4.8 0.00 0.00 0.00 52 1025.3
20260509054549 18 0 0.0 4.8 0.00 0.00 0.00 51 1025.3
20260509053112 18 32 0.0 11.3 0.00 0.00 0.00 50 1025.3
20260509051544 19 0 0.0 4.8 0.00 0.00 0.00 49 1025.2
20260509050045 18 0 0.0 6.4 0.00 0.00 0.00 50 1025.1
20260509044547 20 0 0.0 8.0 0.00 0.00 0.00 46 1025.2
20260509043101 20 0 0.0 9.7 0.00 0.00 0.00 49 1025.1
20260509041559 20 0 0.0 4.8 0.00 0.00 0.00 49 1025.0
20260509040056 19 0 0.0 6.4 0.00 0.00 0.00 50 1025.0
20260509034601 19 0 0.0 9.7 0.00 0.00 0.00 51 1025.0
20260509033044 19 0 0.0 3.2 0.00 0.00 0.00 51 1025.2
20260509031602 19 0 0.0 9.7 0.00 0.00 0.00 53 1025.3
20260509030056 18 0 0.0 9.7 0.00 0.00 0.00 53 1025.5
20260509024545 18 26 0.0 9.7 0.00 0.00 0.00 55 1025.7
20260509023051 18 336 0.0 16.1 0.00 0.00 0.00 57 1025.7
20260509021548 18 0 1.6 14.5 0.00 0.00 0.00 55 1025.9
20260509020054 18 67 4.8 16.1 0.00 0.00 0.00 55 1026.1
20260509014551 17 0 8.0 16.1 0.00 0.00 0.00 54 1026.2
20260509013053 18 41 6.4 16.1 0.00 0.00 0.00 53 1026.1
20260509011549 17 36 6.4 19.3 0.00 0.00 0.00 53 1026.4
20260509010055 17 49 6.4 20.9 0.00 0.00 0.00 55 1026.6
20260509004550 16 22 9.7 24.1 0.00 0.00 0.00 55 1026.6
20260509003050 16 18 6.4 24.1 0.00 0.00 0.00 58 1026.6
20260509001544 16 53 9.7 24.1 0.00 0.00 0.00 61 1026.6